"TOA5","AWS1","CR1000","7964","CR1000.Std.14","CPU:AWS1_114.CR1","64363","TBL110"
"TIMESTAMP","RECORD","Wind_spd_WVc(1)","Wind_spd_WVc(2)","Air_Temp_Avg","Humidity_Avg","SW_upper_Wm2_Avg","Rain_Tot","Press_Avg","Issui_Tot","Depth_cm","SR50A_Raw","Quality","Ground_Temp_Avg(1)","Ground_Temp_Avg(2)","SW_lower_Wm2_Avg","Albedo_Avg","SWC_per(1)","SWC_per(2)","Period(1)","Period(2)"
"TS","RN","","","","","","","","","","","","","","","","","","",""
"","","WVc","WVc","Avg","Avg","Avg","Tot","Avg","Tot","Smp","Smp","Smp","Avg","Avg","Avg","Avg","Smp","Smp","Smp","Smp"
"2018-03-17 00:00:00",332125,0.165,13.08,-5.812,100,0,0,866.1642,0,50.67,2.702,198,0.541,0.94,0.1441502,0,55.15,63.45,34.55,36.46
"2018-03-17 00:10:00",332126,0.353,6.045,-5.849,100,0,0,866.1642,0,51.08,2.698,198,0.548,0.94,0.1138028,0,55.15,63.51,34.55,36.47
"2018-03-17 00:20:00",332127,0.193,16.79,-5.839,100,0,0,866.1642,0,50.75,2.702,202,0.547,0.94,0.1669108,0,55.15,63.45,34.55,36.46
"2018-03-17 00:30:00",332128,0.278,0.964,-5.964,100,0,0,866.1306,0,50.54,2.705,200,0.553,0.943,0.07586952,0,55.15,63.45,34.55,36.46
"2018-03-17 00:40:00",332129,0.367,4.186,-6.077,100,0,0,866.0609,0,51.09,2.699,201,0.553,0.942,0.1100102,0,55.03,63.39,34.52,36.44
"2018-03-17 00:50:00",332130,0.354,9.15,-6.014,100,0,0,866.1136,0,50.99,2.7,207,0.553,0.942,0.178293,0,54.97,63.32,34.51,36.43
"2018-03-17 01:00:00",332131,0.373,9.12,-6.019,100,0,0,866.1642,0,50.82,2.702,201,0.554,0.943,0.1631196,0,54.97,63.32,34.51,36.43
"2018-03-17 01:10:00",332132,0.295,14.06,-6.127,100,0,0,866.2422,0,50.96,2.701,210,0.555,0.945,0.0682826,0,54.92,63.26,34.49,36.42
"2018-03-17 01:20:00",332133,0.267,11.11,-6.169,100,0,0,866.3708,0,50.5,2.706,201,0.56,0.951,0.1403613,0,54.92,63.26,34.49,36.42
"2018-03-17 01:30:00",332134,0.236,22.08,-6.291,100,0,0,866.4172,0,50.64,2.705,196,0.57,0.97,0.01896853,0,54.92,63.26,34.49,36.42
"2018-03-17 01:40:00",332135,0.204,18.29,-6.295,100,0,0,866.4172,0,50.36,2.708,198,0.583,0.996,0.1669319,0,54.92,63.2,34.49,36.4
"2018-03-17 01:50:00",332136,0.379,351.4,-6.242,100,0,0,866.4425,0,50.86,2.702,198,0.59,1.002,0.2238459,0,54.86,63.2,34.48,36.4
"2018-03-17 02:00:00",332137,0.381,4.573,-6.201,100,0,0,866.5142,0,51.1,2.7,207,0.59,1.02,0.178318,0,54.86,63.14,34.48,36.39
"2018-03-17 02:10:00",332138,0.251,6.758,-6.29,100,0,0,866.6028,0,50.87,2.703,203,0.599,1.027,0.09485278,0,54.86,63.14,34.48,36.39
"2018-03-17 02:20:00",332139,0.203,10.58,-6.414,100,0,0,866.6407,0,50.51,2.707,193,0.604,1.034,0.1100322,0,54.86,63.14,34.48,36.39
"2018-03-17 02:30:00",332140,0.3,25.35,-6.478,100,0,0,866.7786,0,50.73,2.705,197,0.608,1.04,0.06450273,0,54.8,63.14,34.46,36.39
"2018-03-17 02:40:00",332141,0.245,5.496,-6.475,100,0,0,866.756,0,51.06,2.702,203,0.627,1.052,0.159368,0,54.8,63.14,34.46,36.39
"2018-03-17 02:50:00",332142,0.333,349,-6.523,100,0,0,866.6713,0,50.96,2.703,209,0.644,1.049,0.1593703,0,54.8,63.08,34.46,36.38
"2018-03-17 03:00:00",332143,0.544,44.94,-6.508,100,0,0,866.5976,0,50.67,2.705,202,0.65,1.036,0.1897304,0,54.75,63.02,34.45,36.36
"2018-03-17 03:10:00",332144,0.429,345,-6.351,100,0,0,866.6943,0,50.98,2.702,209,0.661,1.009,0.2921824,0,54.8,63.08,34.46,36.38
"2018-03-17 03:20:00",332145,0.376,268.5,-6.531,100,0,0,866.6992,0,51.24,2.7,204,0.66,0.991,0.1366007,0,54.8,63.02,34.46,36.36
"2018-03-17 03:30:00",332146,0.505,291.4,-6.545,100,0,0,866.8273,0,50.79,2.705,197,0.663,1.005,0.2238769,0,54.75,63.02,34.45,36.36
"2018-03-17 03:40:00",332147,0.389,203.7,-6.424,100,0,0,866.7556,0,50.81,2.703,198,0.663,1.021,0.4212011,0,54.75,63.02,34.45,36.36
"2018-03-17 03:50:00",332148,0.377,167,-6.492,100,0,0,866.8505,0,50.6,2.706,197,0.662,1.013,0.265627,0,54.75,63.02,34.45,36.36
"2018-03-17 04:00:00",332149,0.272,184.1,-6.453,100,0,0,866.9691,0,51.1,2.702,196,0.653,1.044,0.2921923,0,54.75,63.02,34.45,36.36
"2018-03-17 04:10:00",332150,0.659,217.4,-6.558,99.9,0,0,867.0026,0,51.1,2.702,205,0.647,1.041,0.1897359,0,54.75,62.96,34.45,36.35
"2018-03-17 04:20:00",332151,0.333,299.5,-6.643,99.9,0,0,867.0242,0,50.99,2.704,200,0.653,1.044,0.1783519,0,54.69,62.9,34.44,36.34
"2018-03-17 04:30:00",332152,0.213,107.1,-6.849,99.8,0,0,867.0342,0,50.93,2.705,201,0.649,1.017,0.1479942,0,54.69,62.96,34.44,36.35
"2018-03-17 04:40:00",332153,0.2,289,-6.755,100,0,0,867.1581,0,50.77,2.706,201,0.665,1,0.4098301,0,54.69,62.9,34.44,36.34
"2018-03-17 04:50:00",332154,0.277,9.5,-6.925,99.5,0,0,867.2427,0,50.85,2.706,198,0.659,0.991,0.2314781,0,54.69,62.9,34.44,36.34
"2018-03-17 05:00:00",332155,0.281,349.5,-6.964,100,0,0,867.4185,0,50.88,2.706,196,0.665,0.99,0.2390676,0,54.69,62.9,34.44,36.34
"2018-03-17 05:10:00",332156,0.346,346.6,-7.036,100,0,0,867.5156,0,50.62,2.709,201,0.676,0.99,0.2276834,0,54.69,62.9,34.44,36.34
"2018-03-17 05:20:00",332157,0.02,318.1,-7.01,100,0,0,867.5199,0,50.76,2.707,196,0.665,0.988,0.3529093,0,54.63,62.84,34.42,36.32
"2018-03-17 05:30:00",332158,0.277,322.9,-6.946,100,0,0,867.6221,0,50.8,2.707,201,0.656,0.997,0.3604987,0,54.69,62.84,34.44,36.32
"2018-03-17 05:40:00",332159,0.119,42.88,-7.021,100,0,0,867.7659,0,51.12,2.704,201,0.646,0.991,0.2314781,0,54.63,62.84,34.42,36.32
"2018-03-17 05:50:00",332160,0.088,12.91,-7.086,100,0,0,867.7764,0,50.92,2.706,190,0.645,0.991,0.356704,0,54.63,62.84,34.42,36.32
"2018-03-17 06:00:00",332161,0.372,43.33,-7.104,99.9,0.633641,0,867.8629,0,50.81,2.708,197,0.637,0.993,1.278822,2.267,54.63,62.78,34.42,36.31
"2018-03-17 06:10:00",332162,0.282,219.8,-7.229,99.6,2.274811,0,868.0233,0,51.24,2.703,222,0.629,0.988,2.295808,1.003,54.63,62.78,34.42,36.31
"2018-03-17 06:20:00",332163,0.202,27.87,-7.063,100,4.404001,0,868.0801,0,50.84,2.707,197,0.636,0.985,4.174196,0.955,54.58,62.78,34.41,36.31
"2018-03-17 06:30:00",332164,0.267,12.56,-7.101,100,7.890995,0,868.2805,0,51.12,2.704,195,0.625,0.993,6.963317,0.888,54.63,62.72,34.42,36.3
"2018-03-17 06:40:00",332165,0.21,3.336,-7.241,99.7,16.89972,0,868.405,0,50.96,2.706,191,0.646,0.99,13.42953,0.795,54.63,62.72,34.42,36.3
"2018-03-17 06:50:00",332166,0.279,44.39,-7.281,99.3,29.23013,0,868.6496,0,51.04,2.705,198,0.66,0.994,23.0871,0.791,54.58,62.78,34.41,36.31
"2018-03-17 07:00:00",332167,0.229,57.74,-7.176,99.5,37.02667,0,868.774,0,51.16,2.704,198,0.653,1.012,27.89881,0.754,54.58,62.72,34.41,36.3
"2018-03-17 07:10:00",332168,0.154,358.4,-7.183,99.5,46.80678,0,868.7994,0,50.96,2.706,201,0.662,1.034,35.26057,0.754,54.52,62.66,34.4,36.28
"2018-03-17 07:20:00",332169,0.333,150.4,-7.028,100,62.30934,0,869.0355,0,51.33,2.701,213,0.634,1.061,47.33158,0.761,54.46,62.72,34.38,36.3
"2018-03-17 07:30:00",332170,0.253,178.5,-6.634,100,99.00542,0,869.0512,0,51.12,2.702,206,0.624,1.067,72.44886,0.732,54.35,62.72,34.36,36.3
"2018-03-17 07:40:00",332171,0.468,25.22,-6.496,100,128.2985,0,869.1973,0,50.81,2.704,196,0.639,1.033,91.31242,0.712,54.29,62.66,34.34,36.28
"2018-03-17 07:50:00",332172,0.337,351.5,-6.499,100,168.2809,0,869.2469,0,50.89,2.703,196,0.608,1.024,117.7199,0.701,54.29,62.66,34.34,36.28
"2018-03-17 08:00:00",332173,0.384,17.59,-6.25,100,180.6237,0,869.2882,0,51.14,2.698,190,0.622,0.982,125.2273,0.694,54.29,62.66,34.34,36.28
"2018-03-17 08:10:00",332174,0.299,33.15,-6.029,100,189.174,0,869.5212,0,50.71,2.704,192,0.606,0.976,133.497,0.706,54.29,62.66,34.34,36.28
"2018-03-17 08:20:00",332175,0.342,6.25,-6.223,100,216.7575,0,869.7139,0,51.88,2.691,198,0.564,0.962,165.0868,0.754,54.29,62.66,34.34,36.28
"2018-03-17 08:30:00",332176,0.284,37.69,-5.585,100,258.4914,0,869.9386,0,50.96,2.699,202,0.594,0.973,201.5844,0.779,54.29,62.66,34.34,36.28
"2018-03-17 08:40:00",332177,0.397,338.5,-5.66,100,244.2349,0,870.1683,0,51.63,2.691,202,0.531,1.003,171.4648,0.715,54.24,62.66,34.33,36.28
"2018-03-17 08:50:00",332178,0.433,154.6,-5.203,100,154.7378,0,870.0342,0,50.87,2.695,198,0.601,0.991,127.9904,0.928,54.29,62.66,34.34,36.28
"2018-03-17 09:00:00",332179,0.897,314.6,-5.31,100,81.95537,0,869.8685,0,51.29,2.695,203,0.611,0.96,107.8853,1.328,54.29,62.6,34.34,36.27
"2018-03-17 09:10:00",332180,0.938,356.5,-5.547,100,70.00143,0,869.8676,0,51.64,2.69,198,0.593,0.948,102.4253,1.47,54.24,62.66,34.33,36.28
"2018-03-17 09:20:00",332181,0.512,318.2,-5.175,100,97.37352,0,869.9702,0,51.52,2.689,200,0.589,0.942,107.3223,1.12,54.24,62.6,34.33,36.27
"2018-03-17 09:30:00",332182,0.329,15.97,-4.623,100,263.7145,0,869.9911,0,51.43,2.688,196,0.594,0.89,183.8963,0.701,54.24,62.6,34.33,36.27
"2018-03-17 09:40:00",332183,0.471,318.5,-4.371,100,119.4209,0,869.9932,0,51.49,2.685,192,0.57,0.877,113.8627,1.027,54.24,62.6,34.33,36.27
"2018-03-17 09:50:00",332184,0.651,354.5,-4.027,100,301.1241,0,870.1218,0,51.05,2.689,186,0.541,0.915,197.4754,0.652,54.24,62.6,34.33,36.27
"2018-03-17 10:00:00",332185,0.645,358.1,-3.897,100,391.669,0,870.1264,0,51.11,2.688,188,0.513,0.984,242.2491,0.617,54.24,62.6,34.33,36.27
"2018-03-17 10:10:00",332186,0.368,331.6,-3.594,100,380.0036,0,870.2474,0,51.39,2.683,194,0.508,1.025,196.6448,0.521,54.18,62.6,34.32,36.27
"2018-03-17 10:20:00",332187,0.415,308.5,-3.313,100,346.4472,0,870.2947,0,51.24,2.684,180,0.531,1.004,185.8433,0.563,54.24,62.6,34.33,36.27
"2018-03-17 10:30:00",332188,0.612,309.5,-3.275,100,270.7065,0,870.2839,0,51,2.686,196,0.6,0.916,182.9241,0.893,54.18,62.6,34.32,36.27
"2018-03-17 10:40:00",332189,0.25,339.5,-2.964,100,99.74657,0,870.2553,0,51.39,2.68,201,0.563,0.87,186.0644,2.061,54.12,62.54,34.3,36.25
"2018-03-17 10:50:00",332190,0.374,350,-2.636,100,646.6843,0,870.2798,0,51.5,2.677,194,0.512,0.856,212.7608,0.458,54.12,62.54,34.3,36.25
"2018-03-17 11:00:00",332191,0.423,310.8,-2.034,100,965.9869,0,870.2775,0,51.1,2.677,178,0.508,0.865,221.5833,0.229,54.18,62.54,34.32,36.25
"2018-03-17 11:10:00",332192,0.74,311.5,-1.749,100,1024.714,0,870.2036,0,51.12,2.677,183,0.49,0.914,219.2662,0.214,54.18,62.54,34.32,36.25
"2018-03-17 11:20:00",332193,0.537,303.5,-1.402,100,1055.295,0,870.2015,0,50.69,2.679,189,0.506,0.937,254.8065,0.242,54.12,62.54,34.3,36.25
"2018-03-17 11:30:00",332194,0.497,309.9,-0.969,100,1026.77,0,870.2137,0,50.99,2.674,189,0.49,0.897,321.0225,0.313,54.12,62.48,34.3,36.24
"2018-03-17 11:40:00",332195,0.761,346.9,-0.82,100,1008.002,0,870.197,0,50.89,2.676,181,0.463,0.82,361.043,0.358,54.12,62.48,34.3,36.24
"2018-03-17 11:50:00",332196,0.656,323.6,-0.815,99.9,987.8897,0,870.1144,0,50.94,2.674,194,0.383,0.836,397.1498,0.402,54.12,62.48,34.3,36.24
"2018-03-17 12:00:00",332197,0.577,297.5,-0.531,99.9,986.0505,0,870.0359,0,50.76,2.674,190,0.337,0.824,424.3233,0.43,54.12,62.48,34.3,36.24
"2018-03-17 12:10:00",332198,0.844,333.2,-0.249,97.3,984.5556,0,869.9521,0,51.2,2.669,183,0.311,0.785,433.7012,0.441,54.07,62.48,34.29,36.24
"2018-03-17 12:20:00",332199,0.401,314.4,-0.006,92.9,984.4207,0,870.0839,0,50.71,2.673,194,0.339,0.678,431.3715,0.438,54.07,62.48,34.29,36.24
"2018-03-17 12:30:00",332200,0.614,310.5,0.033,89.3,966.2399,0,869.993,0,51.12,2.667,188,0.37,0.683,417.5874,0.432,54.07,62.48,34.29,36.24
"2018-03-17 12:40:00",332201,0.456,317.7,0.26,85.4,956.0742,0,869.9067,0,50.82,2.67,194,0.372,0.703,405.3015,0.424,54.12,62.48,34.3,36.24
"2018-03-17 12:50:00",332202,0.363,332.6,0.586,79.97,945.7682,0,869.8393,0,50.53,2.67,185,0.36,0.714,394.0388,0.417,54.12,62.42,34.3,36.23
"2018-03-17 13:00:00",332203,0.509,316.5,0.845,78.35,929.0544,0,869.6877,0,50.87,2.667,194,0.321,0.704,382.0945,0.411,54.07,62.42,34.29,36.23
"2018-03-17 13:10:00",332204,0.561,334.6,1.065,72.64,915.2206,0,869.5889,0,50.76,2.666,195,0.33,0.682,370.5668,0.405,54.12,62.42,34.3,36.23
"2018-03-17 13:20:00",332205,0.363,322.7,1.258,68.77,897.2418,0,869.5236,0,50.99,2.665,196,0.325,0.676,355.8002,0.397,54.07,62.42,34.29,36.23
"2018-03-17 13:30:00",332206,0.423,325.8,1.219,69.89,878.3828,0,869.3909,0,50.4,2.67,204,0.29,0.676,336.5824,0.383,54.07,62.42,34.29,36.23
"2018-03-17 13:40:00",332207,0.557,285.3,0.759,67.82,854.6599,0,869.3361,0,50.51,2.671,192,0.256,0.678,306.3484,0.358,54.07,62.36,34.29,36.21
"2018-03-17 13:50:00",332208,0.728,264.5,0.522,63.07,829.5577,0,869.334,0,50.82,2.67,200,0.257,0.684,258.0822,0.311,54.07,62.42,34.29,36.23
"2018-03-17 14:00:00",332209,0.571,270.9,0.488,60.16,806.7659,0,869.3361,0,50.96,2.668,184,0.244,0.677,197.0421,0.244,54.07,62.36,34.29,36.21
"2018-03-17 14:10:00",332210,0.442,277.2,0.57,59.57,631.5468,0,869.3361,0,50.6,2.671,175,0.243,0.676,122.4249,0.196,54.01,62.36,34.27,36.21
"2018-03-17 14:20:00",332211,0.513,265.9,0.596,53.41,415.9183,0,869.3361,0,51.03,2.666,178,0.259,0.678,65.95347,0.198,54.01,62.36,34.27,36.21
"2018-03-17 14:30:00",332212,0.376,281.2,0.765,51.59,82.3075,0,869.3361,0,50.99,2.665,184,0.316,0.683,45.92877,0.558,54.01,62.36,34.27,36.21
"2018-03-17 14:40:00",332213,0.42,281.7,1.18,52.41,81.09348,0,869.3361,0,50.7,2.666,189,0.337,0.65,39.59861,0.488,54.01,62.36,34.27,36.21
"2018-03-17 14:50:00",332214,0.332,275.8,1.318,51.54,79.50514,0,869.412,0,50.89,2.664,173,0.326,0.644,36.85346,0.464,54.01,62.3,34.27,36.2
"2018-03-17 15:00:00",332215,0.498,290.7,1.626,46.27,76.1783,0,869.5806,0,50.15,2.67,188,0.343,0.671,34.50694,0.453,54.07,62.3,34.29,36.2
"2018-03-17 15:10:00",332216,0.335,273,1.751,51.09,72.76243,0,869.7219,0,50.3,2.668,193,0.361,0.742,32.42611,0.446,54.07,62.3,34.29,36.2
"2018-03-17 15:20:00",332217,0.487,281.3,1.822,54.83,69.75833,0,869.9133,0,50.51,2.665,176,0.365,0.742,30.79196,0.441,54.01,62.3,34.27,36.2
"2018-03-17 15:30:00",332218,0.318,276.6,2.101,52.13,64.98983,0,870.1122,0,50.26,2.667,193,0.403,0.762,28.74686,0.442,54.01,62.3,34.27,36.2
"2018-03-17 15:40:00",332219,0.331,232.8,2.044,52.25,60.41594,0,870.175,0,50.02,2.67,185,0.398,0.769,26.76157,0.443,54.01,62.3,34.27,36.2
"2018-03-17 15:50:00",332220,0.372,313.1,2.09,47,57.04405,0,870.1718,0,50.14,2.668,176,0.389,0.799,25.52631,0.447,54.01,62.3,34.27,36.2
"2018-03-17 16:00:00",332221,0.237,272.8,2.156,47.25,52.81121,0,870.1594,0,50.14,2.668,180,0.411,0.817,23.73389,0.449,53.95,62.3,34.26,36.2
"2018-03-17 16:10:00",332222,0.169,260.3,2.118,48.29,48.45321,0,870.1699,0,50.25,2.667,176,0.406,0.847,21.83564,0.451,53.95,62.3,34.26,36.2
"2018-03-17 16:20:00",332223,0.288,281.2,2.141,46.27,44.02545,0,870.1868,0,50.25,2.666,194,0.393,0.885,19.89035,0.452,53.95,62.24,34.26,36.19
"2018-03-17 16:30:00",332224,0.418,255.1,2.057,46.8,40.07973,0,870.1868,0,50.27,2.667,175,0.402,0.914,18.10358,0.452,53.95,62.24,34.26,36.19
"2018-03-17 16:40:00",332225,0.29,115.4,2.311,39.51,37.10569,0,870.151,0,50.19,2.666,175,0.413,0.921,16.70576,0.451,53.95,62.24,34.26,36.19
"2018-03-17 16:50:00",332226,0.161,245,2.216,37.65,31.6454,0,870.1979,0,49.82,2.672,176,0.417,0.91,14.64767,0.463,53.95,62.24,34.26,36.19
"2018-03-17 17:00:00",332227,0.26,231.4,2,38.82,28.13465,0,870.2156,0,50.12,2.669,175,0.425,0.87,13.07456,0.465,53.95,62.24,34.26,36.19
"2018-03-17 17:10:00",332228,0.097,237.5,2.144,38.82,24.26992,0,870.3929,0,50,2.67,181,0.443,0.806,11.5393,0.476,53.95,62.18,34.26,36.17
"2018-03-17 17:20:00",332229,0.147,270.5,1.952,38.35,19.80753,0,870.4783,0,50.11,2.67,188,0.464,0.775,9.575652,0.484,53.95,62.24,34.26,36.19
"2018-03-17 17:30:00",332230,0.01,258.2,1.834,39.63,15.21933,0,870.529,0,49.81,2.673,181,0.495,0.767,7.687816,0.506,53.95,62.24,34.26,36.19
"2018-03-17 17:40:00",332231,0.006,251.1,1.64,42.15,10.1436,0,870.4894,0,49.92,2.674,170,0.503,0.781,5.492922,0.546,53.9,62.24,34.25,36.19
"2018-03-17 17:50:00",332232,0.018,255.3,1.281,47.01,4.80838,0,870.5322,0,49.87,2.677,180,0.504,0.808,3.271492,0.719,53.95,62.18,34.26,36.17
"2018-03-17 18:00:00",332233,0.127,192.4,0.576,55.41,0.1847865,0,870.5281,0,49.96,2.679,173,0.504,0.81,0.7619581,0.504,53.9,62.24,34.25,36.19
"2018-03-17 18:10:00",332234,0,0,0.181,56.02,0,0,870.5323,0,50.04,2.679,172,0.517,0.856,0,0,53.9,62.24,34.25,36.19
"2018-03-17 18:20:00",332235,0.401,194,-0.306,62.23,0,0,870.5471,0,50.06,2.682,188,0.545,0.895,0,0,53.9,62.24,34.25,36.19
"2018-03-17 18:30:00",332236,0.072,193.2,-0.397,59.68,0,0,870.7789,0,50.02,2.681,171,0.529,0.921,0,0,53.9,62.18,34.25,36.17
"2018-03-17 18:40:00",332237,0.125,192.4,-0.452,59.11,0,0,870.8064,0,50.07,2.682,194,0.504,0.925,0,0,53.9,62.18,34.25,36.17
"2018-03-17 18:50:00",332238,0.22,198.5,-0.637,60.34,0,0,870.9471,0,49.97,2.684,181,0.482,0.927,0,0,53.9,62.18,34.25,36.17
"2018-03-17 19:00:00",332239,0.025,198.4,-0.703,59.54,0,0,871.0937,0,50.09,2.682,195,0.499,0.894,0.003792124,0,53.9,62.18,34.25,36.17
"2018-03-17 19:10:00",332240,0.027,202.9,-0.607,56.39,0,0,871.1266,0,50.33,2.68,176,0.506,0.89,0.09480322,0,53.9,62.18,34.25,36.17
"2018-03-17 19:20:00",332241,0.254,164.7,-1.134,64.27,0,0,871.1412,0,50.03,2.686,190,0.506,0.923,0,0,53.84,62.18,34.23,36.17
"2018-03-17 19:30:00",332242,0.017,163,-0.777,57.21,0,0,871.2913,0,50.06,2.681,191,0.506,0.936,0.1630616,0,53.9,62.18,34.25,36.17
"2018-03-17 19:40:00",332243,0.014,88.2,-0.44,54.36,0,0,871.3841,0,49.9,2.683,190,0.506,0.939,0.348876,0,53.9,62.12,34.25,36.16
"2018-03-17 19:50:00",332244,0.001,83.5,-0.529,54.66,0,0,871.3884,0,49.9,2.683,194,0.506,0.938,0.291994,0,53.84,62.12,34.23,36.16
"2018-03-17 20:00:00",332245,0,0,-0.429,53.55,0,0,871.5253,0,49.96,2.682,190,0.506,0.938,0.261657,0,53.84,62.12,34.23,36.16
"2018-03-17 20:10:00",332246,0,0,-0.434,55.72,0,0,871.6349,0,50.07,2.683,190,0.506,0.935,0.2389042,0,53.9,62.12,34.25,36.16
"2018-03-17 20:20:00",332247,0,0,-0.815,57.33,0,0,871.637,0,49.86,2.686,191,0.503,0.926,0.02275278,0,53.9,62.12,34.25,36.16
"2018-03-17 20:30:00",332248,0,0,-0.943,58.58,0,0,871.675,0,49.96,2.685,192,0.507,0.902,0.08722012,0,53.9,62.12,34.25,36.16
"2018-03-17 20:40:00",332249,0,0,-0.914,58.53,0,0,871.7551,0,49.72,2.689,192,0.515,0.878,0.09101436,0,53.9,62.12,34.25,36.16
"2018-03-17 20:50:00",332250,0.27,150.3,-1.299,63.96,0,0,871.7003,0,50.32,2.682,179,0.513,0.899,0.1251582,0,53.84,62.12,34.23,36.16
"2018-03-17 21:00:00",332251,0.244,104,-0.924,65.88,0,0,871.8899,0,49.99,2.684,197,0.507,0.915,0.2617009,0,53.84,62.12,34.23,36.16
"2018-03-17 21:10:00",332252,0.117,114.6,-0.752,66.67,0,0,871.9173,0,50.19,2.682,193,0.517,0.914,0.12896,0,53.9,62.12,34.25,36.16
"2018-03-17 21:20:00",332253,0.578,132.3,-0.591,66.6,0,0,872.0121,0,49.9,2.684,192,0.51,0.921,0.4399911,0,53.9,62.12,34.25,36.16
"2018-03-17 21:30:00",332254,0.456,124.1,-0.708,67.64,0,0,872.1492,0,50.23,2.681,193,0.515,0.943,0.0379324,0,53.84,62.12,34.23,36.16
"2018-03-17 21:40:00",332255,0.363,138.9,-0.836,68.34,0,0,872.2335,0,49.92,2.685,193,0.519,0.942,0,0,53.9,62.12,34.25,36.16
"2018-03-17 21:50:00",332256,0.325,127.2,-0.761,67.27,0,0,872.3503,0,49.94,2.685,193,0.523,0.94,0.02276037,0,53.9,62.12,34.25,36.16
"2018-03-17 22:00:00",332257,0.069,117.1,-1.021,68.38,0,0,872.3126,0,49.9,2.686,193,0.531,0.946,0,0,53.9,62.12,34.25,36.16
"2018-03-17 22:10:00",332258,0.128,145.6,-1.145,68.82,0,0,872.265,0,50.3,2.682,189,0.544,0.941,0,0,53.9,62.12,34.25,36.16
"2018-03-17 22:20:00",332259,0.373,71.94,-1.094,68.24,0,0,872.3868,0,50.04,2.685,194,0.548,0.941,0.0417277,0,53.9,62.12,34.25,36.16
"2018-03-17 22:30:00",332260,0.467,201.1,-1.029,67.5,0,0,872.4501,0,49.86,2.686,200,0.542,0.941,0.1138028,0,53.9,62.12,34.25,36.16
"2018-03-17 22:40:00",332261,0.132,118.9,-1,66.96,0,0,872.4857,0,50.21,2.684,197,0.544,0.941,0.04931455,0,53.9,62.12,34.25,36.16
"2018-03-17 22:50:00",332262,0.504,127.3,-1.032,66.34,0,0,872.4579,0,50.28,2.682,192,0.552,0.941,0.06828168,0,53.9,62.12,34.25,36.16
"2018-03-17 23:00:00",332263,0.307,131.4,-0.935,65.23,0,0,872.474,0,49.9,2.686,196,0.549,0.941,0.03793427,0,53.9,62.12,34.25,36.16
"2018-03-17 23:10:00",332264,0.147,335.9,-1.095,65.86,0,0,872.4789,0,49.96,2.685,193,0.55,0.941,0,0,53.9,62.12,34.25,36.16
"2018-03-17 23:20:00",332265,0.309,337.3,-0.924,65.22,0,0,872.5196,0,50.02,2.684,198,0.552,0.941,0,0,53.9,62.12,34.25,36.16
"2018-03-17 23:30:00",332266,0.081,264.6,-1.276,68.03,0,0,872.5436,0,49.8,2.69,200,0.552,0.941,0,0,53.9,62.12,34.25,36.16
"2018-03-17 23:40:00",332267,0.063,233.1,-1.76,71.51,0,0,872.514,0,50.5,2.683,176,0.552,0.941,0,0,53.9,62.12,34.25,36.16
"2018-03-17 23:50:00",332268,0.094,27.35,-1.663,71.01,0,0,872.4887,0,50,2.688,193,0.557,0.941,0.02276056,0,53.9,62.12,34.25,36.16
